Time,TemperatureF,DewpointF,PressureIn,WindDirection,WindDirectionDegrees,WindSpeedMPH,WindSpeedGustMPH,Humidity,HourlyPrecipIn,Conditions,Clouds,dailyrainin,SolarRadiationWatts/m^2,SoftwareType,DateUTC
2013-02-01 00:01:00,27.0,15.0,-100.00,SSW,192,12.0,21.0,59,-99.99,,,0.03,322.000000,,2013-02-01 00:01:00,
2013-02-01 00:11:00,27.0,15.0,-100.00,SSW,192,12.0,21.0,59,-99.99,,,0.03,322.000000,,2013-02-01 00:11:00,
2013-02-01 00:21:00,27.0,15.0,-100.00,SSW,192,12.0,21.0,59,-99.99,,,0.03,322.000000,,2013-02-01 00:21:00,
2013-02-01 00:31:00,27.0,15.0,-100.00,SSW,192,12.0,21.0,59,-99.99,,,0.03,322.000000,,2013-02-01 00:31:00,
2013-02-01 00:40:00,24.0,13.0,-100.00,SSW,211,10.0,25.0,63,0.00,,,0.03,34.000000,,2013-02-01 00:40:00,
2013-02-01 01:01:00,24.0,13.0,-100.00,SSW,211,10.0,25.0,63,0.00,,,0.03,34.000000,,2013-02-01 01:01:00,
2013-02-01 01:11:00,24.0,13.0,-100.00,SSW,211,10.0,25.0,63,0.00,,,0.03,34.000000,,2013-02-01 01:11:00,
2013-02-01 01:21:00,24.0,13.0,-100.00,SSW,211,10.0,25.0,63,0.00,,,0.03,34.000000,,2013-02-01 01:21:00,
2013-02-01 01:31:00,24.0,13.0,-100.00,SSW,211,10.0,25.0,63,0.00,,,0.03,34.000000,,2013-02-01 01:31:00,
2013-02-01 01:40:00,23.0,14.0,-100.00,SSW,208,8.0,22.0,68,0.00,,,0.03,0.000000,,2013-02-01 01:40:00,
2013-02-01 02:01:00,23.0,14.0,-100.00,SSW,208,8.0,22.0,68,0.00,,,0.03,0.000000,,2013-02-01 02:01:00,
2013-02-01 02:11:00,23.0,14.0,-100.00,SSW,208,8.0,22.0,68,0.00,,,0.03,0.000000,,2013-02-01 02:11:00,
2013-02-01 02:21:00,23.0,14.0,-100.00,SSW,208,8.0,22.0,68,0.00,,,0.03,0.000000,,2013-02-01 02:21:00,
2013-02-01 02:31:00,23.0,14.0,-100.00,SSW,208,8.0,22.0,68,0.00,,,0.03,0.000000,,2013-02-01 02:31:00,
2013-02-01 02:40:00,23.0,15.0,-100.00,SSW,209,10.0,21.0,70,0.00,,,0.03,0.000000,,2013-02-01 02:40:00,
2013-02-01 03:01:00,23.0,15.0,-100.00,SSW,209,10.0,21.0,70,0.00,,,0.03,0.000000,,2013-02-01 03:01:00,
2013-02-01 03:11:00,23.0,15.0,-100.00,SSW,209,10.0,21.0,70,0.00,,,0.03,0.000000,,2013-02-01 03:11:00,
2013-02-01 03:21:00,23.0,15.0,-100.00,SSW,209,10.0,21.0,70,0.00,,,0.03,0.000000,,2013-02-01 03:21:00,
2013-02-01 03:32:00,23.0,15.0,-100.00,SSW,209,10.0,21.0,70,0.00,,,0.03,0.000000,,2013-02-01 03:32:00,
2013-02-01 03:40:00,25.0,13.0,-100.00,WSW,254,9.0,24.0,60,0.00,,,0.03,0.000000,,2013-02-01 03:40:00,
2013-02-01 04:02:00,25.0,13.0,-100.00,WSW,254,9.0,24.0,60,0.00,,,0.03,0.000000,,2013-02-01 04:02:00,
2013-02-01 04:11:00,25.0,13.0,-100.00,WSW,254,9.0,24.0,60,0.00,,,0.03,0.000000,,2013-02-01 04:11:00,
2013-02-01 04:21:00,25.0,13.0,-100.00,WSW,254,9.0,24.0,60,0.00,,,0.03,0.000000,,2013-02-01 04:21:00,
2013-02-01 04:31:00,25.0,13.0,-100.00,WSW,254,9.0,24.0,60,0.00,,,0.03,0.000000,,2013-02-01 04:31:00,
2013-02-01 04:40:00,23.0,16.0,-100.00,SSW,196,10.0,22.0,73,0.00,,,0.03,0.000000,,2013-02-01 04:40:00,
2013-02-01 05:03:00,23.0,16.0,-100.00,SSW,196,10.0,22.0,73,0.00,,,0.03,0.000000,,2013-02-01 05:03:00,
2013-02-01 05:11:00,23.0,16.0,-100.00,SSW,196,10.0,22.0,73,0.00,,,0.03,0.000000,,2013-02-01 05:11:00,
2013-02-01 05:22:00,23.0,16.0,-100.00,SSW,196,10.0,22.0,73,0.00,,,0.03,0.000000,,2013-02-01 05:22:00,
2013-02-01 05:31:00,23.0,16.0,-100.00,SSW,196,10.0,22.0,73,0.00,,,0.03,0.000000,,2013-02-01 05:31:00,
2013-02-01 05:40:00,24.0,16.0,-100.00,SW,217,12.0,25.0,70,0.00,,,0.03,0.000000,,2013-02-01 05:40:00,
2013-02-01 06:02:00,24.0,16.0,-100.00,SW,217,12.0,25.0,70,0.00,,,0.03,0.000000,,2013-02-01 06:02:00,
2013-02-01 06:11:00,24.0,16.0,-100.00,SW,217,12.0,25.0,70,0.00,,,0.03,0.000000,,2013-02-01 06:11:00,
2013-02-01 06:21:00,24.0,16.0,-100.00,SW,217,12.0,25.0,70,0.00,,,0.03,0.000000,,2013-02-01 06:21:00,
2013-02-01 06:32:00,24.0,16.0,-100.00,SW,217,12.0,25.0,70,0.00,,,0.03,0.000000,,2013-02-01 06:32:00,
2013-02-01 06:40:00,23.0,17.0,-100.00,SW,221,12.0,22.0,77,0.00,,,0.03,0.000000,,2013-02-01 06:40:00,
2013-02-01 07:01:00,23.0,17.0,-100.00,SW,221,12.0,22.0,77,0.00,,,0.03,0.000000,,2013-02-01 07:01:00,
2013-02-01 07:12:00,23.0,17.0,-100.00,SW,221,12.0,22.0,77,0.00,,,0.03,0.000000,,2013-02-01 07:12:00,
2013-02-01 07:21:00,23.0,17.0,-100.00,SW,221,12.0,22.0,77,0.00,,,0.03,0.000000,,2013-02-01 07:21:00,
2013-02-01 07:32:00,23.0,17.0,-100.00,SW,221,12.0,22.0,77,0.00,,,0.03,0.000000,,2013-02-01 07:32:00,
2013-02-01 07:40:00,23.0,19.0,-100.00,SSW,209,10.0,19.0,84,0.00,,,0.03,0.000000,,2013-02-01 07:40:00,
2013-02-01 08:01:00,23.0,19.0,-100.00,SSW,209,10.0,19.0,84,0.00,,,0.03,0.000000,,2013-02-01 08:01:00,
2013-02-01 08:11:00,23.0,19.0,-100.00,SSW,209,10.0,19.0,84,0.00,,,0.03,0.000000,,2013-02-01 08:11:00,
2013-02-01 08:21:00,23.0,19.0,-100.00,SSW,209,10.0,19.0,84,0.00,,,0.03,0.000000,,2013-02-01 08:21:00,
2013-02-01 08:31:00,23.0,19.0,-100.00,SSW,209,10.0,19.0,84,0.00,,,0.03,0.000000,,2013-02-01 08:31:00,
2013-02-01 08:40:00,22.0,17.0,-100.00,SSW,197,11.0,17.0,82,0.00,,,0.03,0.000000,,2013-02-01 08:40:00,
2013-02-01 09:01:00,22.0,17.0,-100.00,SSW,197,11.0,17.0,82,0.00,,,0.03,0.000000,,2013-02-01 09:01:00,
2013-02-01 09:11:00,22.0,17.0,-100.00,SSW,197,11.0,17.0,82,0.00,,,0.03,0.000000,,2013-02-01 09:11:00,
2013-02-01 09:21:00,22.0,17.0,-100.00,SSW,197,11.0,17.0,82,0.00,,,0.03,0.000000,,2013-02-01 09:21:00,
2013-02-01 09:32:00,22.0,17.0,-100.00,SSW,197,11.0,17.0,82,0.00,,,0.03,0.000000,,2013-02-01 09:32:00,
2013-02-01 09:40:00,23.0,17.0,-100.00,SW,219,10.0,20.0,76,0.00,,,0.03,0.000000,,2013-02-01 09:40:00,
2013-02-01 10:01:00,23.0,17.0,-100.00,SW,219,10.0,20.0,76,0.00,,,0.03,0.000000,,2013-02-01 10:01:00,
2013-02-01 10:11:00,23.0,17.0,-100.00,SW,219,10.0,20.0,76,0.00,,,0.03,0.000000,,2013-02-01 10:11:00,
2013-02-01 10:21:00,23.0,17.0,-100.00,SW,219,10.0,20.0,76,0.00,,,0.03,0.000000,,2013-02-01 10:21:00,
2013-02-01 10:31:00,23.0,17.0,-100.00,SW,219,10.0,20.0,76,0.00,,,0.03,0.000000,,2013-02-01 10:31:00,
2013-02-01 10:40:00,23.0,16.0,-100.00,SSW,208,9.0,14.0,75,0.00,,,0.03,0.000000,,2013-02-01 10:40:00,
2013-02-01 11:01:00,23.0,16.0,-100.00,SSW,208,9.0,14.0,75,0.00,,,0.03,0.000000,,2013-02-01 11:01:00,
2013-02-01 11:11:00,23.0,16.0,-100.00,SSW,208,9.0,14.0,75,0.00,,,0.03,0.000000,,2013-02-01 11:11:00,
2013-02-01 11:21:00,23.0,16.0,-100.00,SSW,208,9.0,14.0,75,0.00,,,0.03,0.000000,,2013-02-01 11:21:00,
2013-02-01 11:31:00,23.0,16.0,-100.00,SSW,208,9.0,14.0,75,0.00,,,0.03,0.000000,,2013-02-01 11:31:00,
2013-02-01 11:40:00,24.0,18.0,-100.00,SW,221,10.0,20.0,79,0.00,,,0.03,0.000000,,2013-02-01 11:40:00,
2013-02-01 12:02:00,24.0,18.0,-100.00,SW,221,10.0,20.0,79,0.00,,,0.03,0.000000,,2013-02-01 12:02:00,
2013-02-01 12:12:00,24.0,18.0,-100.00,SW,221,10.0,20.0,79,0.00,,,0.03,0.000000,,2013-02-01 12:12:00,
2013-02-01 12:22:00,24.0,18.0,-100.00,SW,221,10.0,20.0,79,0.00,,,0.03,0.000000,,2013-02-01 12:22:00,
2013-02-01 12:32:00,24.0,18.0,-100.00,SW,221,10.0,20.0,79,0.00,,,0.03,0.000000,,2013-02-01 12:32:00,
2013-02-01 12:40:00,24.0,18.0,-100.00,SW,221,12.0,19.0,76,0.00,,,0.03,0.000000,,2013-02-01 12:40:00,
2013-02-01 13:02:00,24.0,18.0,-100.00,SW,221,12.0,19.0,76,0.00,,,0.03,0.000000,,2013-02-01 13:02:00,
2013-02-01 13:11:00,24.0,18.0,-100.00,SW,221,12.0,19.0,76,0.00,,,0.03,0.000000,,2013-02-01 13:11:00,
2013-02-01 13:21:00,24.0,18.0,-100.00,SW,221,12.0,19.0,76,0.00,,,0.03,0.000000,,2013-02-01 13:21:00,
2013-02-01 13:32:00,24.0,18.0,-100.00,SW,221,12.0,19.0,76,0.00,,,0.03,0.000000,,2013-02-01 13:32:00,
2013-02-01 13:40:00,23.0,19.0,-100.00,SW,216,9.0,20.0,85,0.00,,,0.03,0.000000,,2013-02-01 13:40:00,
2013-02-01 14:03:00,23.0,19.0,-100.00,SW,216,9.0,20.0,85,0.00,,,0.03,0.000000,,2013-02-01 14:03:00,
2013-02-01 14:11:00,23.0,19.0,-100.00,SW,216,9.0,20.0,85,0.00,,,0.03,0.000000,,2013-02-01 14:11:00,
2013-02-01 14:21:00,23.0,19.0,-100.00,SW,216,9.0,20.0,85,0.00,,,0.03,0.000000,,2013-02-01 14:21:00,
2013-02-01 14:32:00,23.0,19.0,-100.00,SW,216,9.0,20.0,85,0.00,,,0.03,0.000000,,2013-02-01 14:32:00,
2013-02-01 14:40:00,23.0,17.0,-100.00,SW,216,11.0,18.0,79,0.00,,,0.03,0.000000,,2013-02-01 14:40:00,
2013-02-01 15:02:00,23.0,17.0,-100.00,SW,216,11.0,18.0,79,0.00,,,0.03,0.000000,,2013-02-01 15:02:00,
2013-02-01 15:12:00,23.0,17.0,-100.00,SW,216,11.0,18.0,79,0.00,,,0.03,0.000000,,2013-02-01 15:12:00,
2013-02-01 15:21:00,23.0,17.0,-100.00,SW,216,11.0,18.0,79,0.00,,,0.03,0.000000,,2013-02-01 15:21:00,
2013-02-01 15:32:00,23.0,17.0,-100.00,SW,216,11.0,18.0,79,0.00,,,0.03,0.000000,,2013-02-01 15:32:00,
2013-02-01 15:40:00,24.0,18.0,-100.00,SW,227,6.0,16.0,77,0.00,,,0.03,21.000000,,2013-02-01 15:40:00,
2013-02-01 16:02:00,24.0,18.0,-100.00,SW,227,6.0,16.0,77,0.00,,,0.03,21.000000,,2013-02-01 16:02:00,
2013-02-01 16:11:00,24.0,18.0,-100.00,SW,227,6.0,16.0,77,0.00,,,0.03,21.000000,,2013-02-01 16:11:00,
2013-02-01 16:21:00,24.0,18.0,-100.00,SW,227,6.0,16.0,77,0.00,,,0.03,21.000000,,2013-02-01 16:21:00,
2013-02-01 16:32:00,24.0,18.0,-100.00,SW,227,6.0,16.0,77,0.00,,,0.03,21.000000,,2013-02-01 16:32:00,
2013-02-01 16:40:00,23.0,19.0,-100.00,WNW,296,14.0,30.0,85,0.00,,,0.03,66.000000,,2013-02-01 16:40:00,
2013-02-01 17:02:00,23.0,19.0,-100.00,WNW,296,14.0,30.0,85,0.00,,,0.03,66.000000,,2013-02-01 17:02:00,
2013-02-01 17:11:00,23.0,19.0,-100.00,WNW,296,14.0,30.0,85,0.00,,,0.03,66.000000,,2013-02-01 17:11:00,
2013-02-01 17:22:00,23.0,19.0,-100.00,WNW,296,14.0,30.0,85,0.00,,,0.03,66.000000,,2013-02-01 17:22:00,
2013-02-01 17:32:00,23.0,19.0,-100.00,WNW,296,14.0,30.0,85,0.00,,,0.03,66.000000,,2013-02-01 17:32:00,
2013-02-01 18:02:00,27.0,17.0,-100.00,West,264,15.0,27.0,65,0.00,,,0.03,224.000000,,2013-02-01 18:02:00,
2013-02-01 18:12:00,27.0,17.0,-100.00,West,264,15.0,27.0,65,0.00,,,0.03,224.000000,,2013-02-01 18:12:00,
2013-02-01 18:22:00,27.0,17.0,-100.00,West,264,15.0,27.0,65,0.00,,,0.03,224.000000,,2013-02-01 18:22:00,
2013-02-01 18:31:00,27.0,17.0,-100.00,West,264,15.0,27.0,65,0.00,,,0.03,224.000000,,2013-02-01 18:31:00,
2013-02-01 19:02:00,34.0,17.0,-100.00,West,277,8.0,23.0,50,-99.99,,,0.03,588.000000,,2013-02-01 19:02:00,
2013-02-01 19:40:00,33.0,13.0,-100.00,WNW,286,5.0,24.0,43,-99.99,,,0.05,552.000000,,2013-02-01 19:40:00,
2013-02-01 20:02:00,33.0,13.0,-100.00,WNW,286,5.0,24.0,43,-99.99,,,0.05,552.000000,,2013-02-01 20:02:00,
2013-02-01 20:40:00,32.0,12.0,-100.00,West,277,9.0,24.0,42,-99.99,,,0.05,439.000000,,2013-02-01 20:40:00,
2013-02-01 21:02:00,32.0,12.0,-100.00,West,277,9.0,24.0,42,-99.99,,,0.05,439.000000,,2013-02-01 21:02:00,
2013-02-01 21:11:00,32.0,12.0,-100.00,West,277,9.0,24.0,42,-99.99,,,0.05,439.000000,,2013-02-01 21:11:00,
2013-02-01 21:21:00,32.0,12.0,-100.00,West,277,9.0,24.0,42,-99.99,,,0.05,439.000000,,2013-02-01 21:21:00,
2013-02-01 21:31:00,32.0,12.0,-100.00,West,277,9.0,24.0,42,-99.99,,,0.05,439.000000,,2013-02-01 21:31:00,
2013-02-01 21:40:00,31.0,10.0,-100.00,West,262,9.0,18.0,40,0.01,,,0.05,370.000000,,2013-02-01 21:40:00,
2013-02-01 22:02:00,31.0,10.0,-100.00,West,262,9.0,18.0,40,0.01,,,0.05,370.000000,,2013-02-01 22:02:00,
2013-02-01 22:11:00,31.0,10.0,-100.00,West,262,9.0,18.0,40,0.01,,,0.05,370.000000,,2013-02-01 22:11:00,
2013-02-01 22:21:00,31.0,10.0,-100.00,West,262,9.0,18.0,40,0.01,,,0.05,370.000000,,2013-02-01 22:21:00,
2013-02-01 22:32:00,31.0,10.0,-100.00,West,262,9.0,18.0,40,0.01,,,0.05,370.000000,,2013-02-01 22:32:00,
2013-02-01 22:40:00,32.0,15.0,-100.00,SW,230,7.0,18.0,49,0.01,,,0.05,417.000000,,2013-02-01 22:40:00,
2013-02-01 23:01:00,32.0,15.0,-100.00,SW,230,7.0,18.0,49,0.01,,,0.05,417.000000,,2013-02-01 23:01:00,
2013-02-01 23:11:00,32.0,15.0,-100.00,SW,230,7.0,18.0,49,0.01,,,0.05,417.000000,,2013-02-01 23:11:00,
2013-02-01 23:21:00,32.0,15.0,-100.00,SW,230,7.0,18.0,49,0.01,,,0.05,417.000000,,2013-02-01 23:21:00,
2013-02-01 23:31:00,32.0,15.0,-100.00,SW,230,7.0,18.0,49,0.01,,,0.05,417.000000,,2013-02-01 23:31:00,
2013-02-01 23:40:00,26.0,16.0,-100.00,SSW,201,10.0,19.0,65,-99.99,,,0.05,165.000000,,2013-02-01 23:40:00,